Zurück zum Katalog

COSMOS 1225

AktivNavigationPO
NORAD 12087·PAYLOAD·🇷🇺 Russia

Gestartet Dec 5, 1980 von Plesetsk Cosmodrome

Loading…

Nächste Überflüge (nächste 24 Stunden)

TLE

AktuellSource: Space-Track

Epoche: Sep 14, 2026, 09:16 UTC

1 12087U 80097A   26257.38663534  .00000030  00000-0  15163-4 0  9995
2 12087  82.9449  49.3846 0056491 164.1160 224.0711 13.74762122295697

Verfolge COSMOS 1225 in Echtzeit mit AllMySat

Download on the App Store